DW8492 Weather Reports


Display with metric or nautical units.
time (UTC)temp
F
wind
direction
speed
MPH
gust
MPH
rain 1hr
in
rain 24hr
in
rain mn
in
humidity
%
barometer
mb
20260509044536 48 325 0.0 0.0 0.01 0.10 0.01 95 1010.1
20260509043110 48 324 0.0 0.0 0.01 0.10 0.01 95 1010.4
20260509041538 48 325 0.0 0.0 0.01 0.10 0.01 95 1010.6
20260509040109 48 324 0.0 0.0 0.01 0.09 0.00 95 1010.8
20260509034546 48 324 0.0 0.0 0.01 0.09 0.09 95 1011.0
20260509033058 48 324 0.0 0.0 0.02 0.09 0.09 95 1011.2
20260509031509 49 325 0.0 0.0 0.03 0.09 0.09 95 1011.3
20260509030155 49 324 0.0 0.0 0.03 0.08 0.08 95 1011.5
20260509024516 49 324 0.0 0.0 0.04 0.08 0.08 95 1011.8
20260509023113 49 324 0.0 0.0 0.03 0.07 0.07 94 1012.0
20260509021556 49 324 0.0 0.0 0.02 0.06 0.06 94 1012.0
20260509020021 49 324 0.0 0.0 0.02 0.05 0.05 94 1011.9
20260509014558 49 324 0.0 2.0 0.01 0.04 0.04 94 1011.7
20260509013022 49 324 0.0 0.0 0.01 0.04 0.04 93 1010.9
20260509011607 50 326 0.0 1.0 0.00 0.03 0.03 93 1010.8
20260509010038 50 326 0.0 1.0 0.00 0.03 0.03 93 1010.7
20260509004501 50 326 0.0 2.0 0.00 0.03 0.03 93 1010.6
20260509003032 50 213 0.0 2.0 0.00 0.03 0.03 92 1010.5
20260509001611 50 213 0.0 0.0 0.00 0.03 0.03 92 1010.3
20260509000037 51 213 0.0 0.0 0.00 0.03 0.03 92 1010.2
20260508234612 51 213 0.0 0.0 0.00 0.03 0.03 91 1010.1
20260508233033 51 213 0.0 0.0 0.00 0.03 0.03 91 1010.1
20260508231606 51 213 0.0 0.0 0.00 0.03 0.03 91 1009.9
20260508230035 51 213 0.0 0.0 0.00 0.03 0.03 90 1010.5
20260508224607 52 213 0.0 0.0 0.00 0.03 0.03 90 1010.5
20260508223045 52 213 0.0 0.0 0.01 0.03 0.03 90 1010.5
20260508221608 52 213 0.0 0.0 0.02 0.03 0.03 90 1010.6
20260508220038 52 213 0.0 0.0 0.03 0.03 0.03 89 1010.7
20260508214548 52 213 0.0 0.0 0.03 0.03 0.03 88 1010.7
20260508213026 52 213 0.0 0.0 0.02 0.02 0.02 86 1010.9
20260508211558 53 213 0.0 0.0 0.01 0.01 0.01 84 1010.9
20260508210022 53 213 0.0 3.0 0.00 0.00 0.00 80 1010.8
20260508204605 53 211 0.0 2.0 0.00 0.00 0.00 81 1010.7
20260508203033 53 205 0.0 3.0 0.00 0.00 0.00 80 1010.8
20260508201501 52 232 0.0 1.0 0.00 0.00 0.00 79 1011.0
20260508200045 53 231 1.0 3.0 0.00 0.00 0.00 78 1011.2
20260508194516 53 182 0.0 6.0 0.00 0.00 0.00 75 1011.6
20260508193122 54 228 2.0 11.0 0.00 0.00 0.00 72 1011.9
20260508191540 55 246 4.0 11.0 0.00 0.00 0.00 68 1011.9
20260508190115 56 249 1.0 8.0 0.00 0.00 0.00 68 1011.9
20260508184534 57 270 3.0 10.0 0.00 0.00 0.00 63 1011.7
20260508183114 58 262 2.0 6.0 0.00 0.00 0.00 60 1011.5
20260508181534 58 150 3.0 10.0 0.00 0.00 0.00 60 1011.5
20260508180121 58 259 3.0 6.0 0.00 0.00 0.00 61 1011.4
20260508174549 58 292 4.0 10.0 0.00 0.00 0.00 59 1011.4
20260508173025 60 218 3.0 10.0 0.00 0.00 0.00 57 1011.4
20260508171555 61 223 3.0 8.0 0.00 0.00 0.00 59 1011.4
20260508170031 59 207 4.0 13.0 0.00 0.00 0.00 57 1011.7
20260508164553 59 10 2.0 11.0 0.00 0.00 0.00 57 1011.7
20260508163017 61 227 3.0 6.0 0.00 0.00 0.00 54 1011.8
20260508161508 60 314 3.0 8.0 0.00 0.00 0.00 55 1011.9
20260508160151 60 345 2.0 9.0 0.00 0.00 0.00 58 1011.9
20260508154609 58 9 1.0 7.0 0.00 0.00 0.00 57 1012.2
20260508153043 57 360 2.0 7.0 0.00 0.00 0.00 59 1012.5
20260508151609 57 283 2.0 7.0 0.00 0.00 0.00 57 1012.5
20260508150054 57 250 3.0 9.0 0.00 0.00 0.00 56 1012.5
20260508144527 57 280 3.0 7.0 0.00 0.00 0.00 58 1012.5
20260508143101 55 242 3.0 10.0 0.00 0.00 0.00 59 1012.4
20260508141521 54 230 2.0 7.0 0.00 0.00 0.00 63 1012.7
20260508140052 53 175 2.0 9.0 0.00 0.00 0.00 66 1012.8
20260508134513 52 231 2.0 8.0 0.00 0.00 0.00 65 1012.8
20260508133055 51 225 1.0 4.0 0.00 0.00 0.00 70 1012.8
20260508131528 49 192 2.0 4.0 0.00 0.00 0.00 73 1012.7
20260508130058 47 242 2.0 5.0 0.00 0.00 0.00 75 1012.9
20260508124530 46 232 1.0 5.0 0.00 0.00 0.00 74 1013.0
20260508123117 46 244 1.0 4.0 0.00 0.00 0.00 75 1013.2
20260508121512 46 240 1.0 4.0 0.00 0.00 0.00 74 1013.2
20260508120105 46 225 1.0 5.0 0.00 0.00 0.00 74 1012.9
20260508114510 45 214 2.0 5.0 0.00 0.00 0.00 76 1012.8
20260508113110 44 238 2.0 6.0 0.00 0.00 0.00 79 1012.7
20260508111528 42 261 2.0 4.0 0.00 0.00 0.00 85 1012.6
20260508110110 40 194 0.0 1.0 0.00 0.00 0.00 88 1012.5
20260508104533 39 13 0.0 0.0 0.00 0.00 0.00 86 1012.5
20260508103114 40 219 0.0 1.0 0.00 0.00 0.00 84 1012.4
20260508101652 41 227 0.0 0.0 0.00 0.00 0.00 82 1012.5
20260508100022 42 227 0.0 0.0 0.00 0.00 0.00 82 1012.4
20260508094557 43 227 0.0 0.0 0.00 0.00 0.00 83 1012.6
20260508093032 43 227 0.0 0.0 0.00 0.00 0.00 82 1012.8
20260508091557 43 227 0.0 0.0 0.00 0.00 0.00 82 1012.7
20260508090020 43 227 0.0 0.0 0.00 0.00 0.00 81 1012.8
20260508084552 43 223 0.0 0.0 0.00 0.00 0.00 81 1012.9
20260508083014 43 223 0.0 0.0 0.00 0.00 0.00 80 1012.8
20260508081602 43 223 0.0 2.0 0.00 0.00 0.00 79 1012.8
20260508080026 43 221 0.0 4.0 0.00 0.00 0.00 79 1012.8
20260508074600 42 313 0.0 2.0 0.00 0.00 0.00 82 1012.7
20260508073023 41 339 0.0 0.0 0.00 0.00 0.00 85 1012.6
20260508071611 41 339 0.0 0.0 0.00 0.00 0.00 87 1012.5
20260508070037 40 339 0.0 0.0 0.00 0.00 0.00 89 1012.8
20260508064611 40 339 0.0 0.0 0.00 0.00 0.00 91 1012.7
20260508063035 38 340 0.0 0.0 0.00 0.00 0.00 92 1013.1
20260508061520 37 340 0.0 0.0 0.00 0.00 0.00 91 1013.1
20260508060042 37 340 0.0 0.0 0.00 0.00 0.00 90 1013.1
20260508054513 37 340 0.0 0.0 0.00 0.00 0.00 90 1013.0
20260508053108 36 340 0.0 0.0 0.00 0.00 0.00 89 1013.2
20260508051523 36 340 0.0 0.0 0.00 0.00 0.00 89 1013.4
20260508050108 36 340 0.0 0.0 0.00 0.00 0.00 88 1013.4